Location: Fleischmann Planetarium and Science Center
(39.5456°N, 119.8190°W)
Time: 04:41:23
(UTC-07:00)

Daily predictions for brighter satellites

Satellite Brightness Start Highest point End
(mag) Time Altitude Azimuth Time Altitude Azimuth Time Altitude Azimuth
Cosmos 2369 Rocket 3.7 00:00:51 10° NNW 00:03:50 32° NNW 00:03:50 32° NNW
CZ-2C R/B 4.4 00:18:18 10° N 00:21:14 28° NNW 00:21:14 28° NNW
ATLAS 5 CENTAUR R/B 4.0 00:32:55 10° NW 00:35:43 29° NW 00:35:43 29° NW
ADEOS Rocket 4.0 00:53:51 10° NNE 00:58:30 45° NNE 00:58:30 45° NNE
Cosmos 2082 Rocket 4.0 02:02:43 24° ENE 02:02:43 24° ENE 02:05:30 10° NE
Lacrosse 4 Rocket 4.1 02:11:35 10° N 02:13:36 18° NNE 02:13:36 18° NNE
Cosmos 2034 Rocket 4.5 02:29:01 56° N 02:29:01 56° N 02:33:51 10° N
Cosmos 1607 4.4 02:31:20 58° NE 02:31:20 58° NE 02:36:32 10° NE
Resurs 1-4 Rocket 3.5 02:25:51 10° NNE 02:29:25 32° ENE 02:29:25 32° ENE
Cosmos 1833 Rocket 3.5 02:39:39 48° NE 02:39:39 48° NE 02:43:45 10° NNE
ATLAS CENTAUR R/B 4.5 02:36:58 60° SSW 02:39:50 79° SE 03:08:21 10° NE
Cosmos 1092 Rocket 4.4 02:36:03 10° N 02:42:03 58° ENE 02:42:03 58° ENE
Lacrosse 5 rocket 3.6 02:52:11 24° NE 02:52:11 24° NE 02:53:53 10° NE
SL-16 R/B 2.7 02:50:51 70° ENE 02:50:51 70° ENE 02:57:06 10° N
Cosmos 909 Rocket 4.3 03:04:23 10° NNW 03:09:20 57° NW 03:09:20 57° NW
Cosmos 1066 Rocket 4.4 03:13:19 61° E 03:13:19 61° E 03:18:38 10° NNE
Cosmos 1570 Rocket 4.3 03:14:36 64° ENE 03:14:36 64° ENE 03:19:18 10° NNE
USA 215 4.4 03:10:34 10° ENE 03:16:10 30° SE 03:17:17 28° SE
H-2A R/B 4.2 03:12:54 10° N 03:15:06 29° N 03:15:06 29° N
Iridium 4 Rocket 4.4 03:23:36 34° N 03:23:36 34° N 03:26:12 10° N
Spot 4 Rocket 4.0 03:22:48 10° NNE 03:27:47 80° ENE 03:27:47 80° ENE
Cosmos 1634 Rocket 3.8 03:28:44 72° W 03:28:56 73° W 03:35:12 10° N
ARIANE 5 R/B 2.5 03:24:00 10° NNE 03:29:12 82° E 03:29:12 82° E
Cosmos 468 Rocket 4.2 03:30:11 64° ESE 03:30:24 65° ESE 03:35:40 10° NNE
CZ-2D R/B 2.3 03:26:29 10° N 03:31:20 58° NW 03:31:20 58° NW
Cosmos 1892 Rocket 4.3 03:34:56 48° E 03:35:01 48° E 03:39:16 10° NNE
Cosmos 1980 Rocket 2.2 03:30:54 10° NNW 03:36:33 80° ENE 03:38:30 43° SSE
UNKNOWN OBJECT B 3.8 03:34:25 10° NNE 03:37:31 42° ENE 03:37:31 42° ENE
Cosmos 1697 Rocket 3.3 03:33:48 10° NNW 03:37:42 41° WNW 03:37:42 41° WNW
Cosmos 1025 Rocket 4.3 03:43:21 30° NNW 03:43:21 30° NNW 03:45:53 10° N
Cosmos 2279 Rocket 3.9 03:41:46 54° S 03:43:21 87° E 03:49:39 10° N
Cosmos 2082 Rocket 3.0 03:44:33 37° WNW 03:44:36 37° WNW 03:49:48 10° N
SL-16 R/B 3.8 03:43:00 10° N 03:48:08 34° ENE 03:53:13 10° ESE
USA 238 DEB 4.1 03:48:16 36° S 03:50:53 55° ESE 03:57:37 10° NE
USA 238 4.1 03:48:20 35° S 03:50:59 55° ESE 03:57:44 10° NE
IRS-1D 4.0 03:48:47 10° N 03:53:38 44° WNW 03:53:38 44° WNW
Lacrosse 4 Rocket 4.0 03:49:40 10° NW 03:49:52 11° NW 03:49:52 11° NW
Cosmos 2026 Rocket 4.0 03:47:45 10° NNW 03:54:01 61° W 03:55:12 52° SW
Meteor 1-22 Rocket 4.3 03:50:18 10° N 03:56:18 83° E 03:59:32 28° SSE
ADEOS II 2.7 03:52:13 10° NNE 03:57:21 51° E 03:59:59 27° SSE
ADEOS 3.4 03:56:14 10° NNE 04:01:29 87° WNW 04:02:48 52° SSW
Cosmos 1842 3.5 04:01:59 59° SE 04:02:22 63° E 04:06:18 10° NNE
Cosmos 2322 Rocket 3.4 03:59:03 10° N 04:04:25 43° ENE 04:09:43 10° SE
Cosmos 841 Rocket 3.8 04:06:58 34° S 04:09:07 62° ESE 04:14:15 10° NNE
Timation 2 Rocket 3.9 04:07:45 37° SSW 04:10:17 79° ESE 04:16:16 10° NNE
Resurs 1-4 Rocket 3.2 04:06:02 10° N 04:10:21 26° WNW 04:10:30 26° WNW
Cosmos 1953 4.3 04:11:10 10° NNE 04:14:46 29° ENE 04:18:20 10° SE
deb Kosmos-1763 4.1 04:18:54 63° S 04:19:26 81° ESE 04:23:12 10° NNE
Cosmos 1805 3.1 04:15:50 10° N 04:19:45 89° W 04:20:55 44° S
Cosmos 1833 Rocket 4.4 04:21:21 17° WNW 04:22:37 18° NW 04:26:23 10° N
BREEZE-M R/B 2.7 04:22:27 57° W 04:22:59 68° NNW 04:28:23 10° NE
Cosmos 1766 3.6 04:21:47 10° NNW 04:25:12 45° WNW 04:25:12 45° WNW
Cosmos 1655 Rocket 4.2 04:19:45 10° NNW 04:25:53 51° W 04:29:16 26° SSW
Cosmos 540 Rocket 4.1 04:24:46 16° S 04:28:37 52° ESE 04:33:36 10° NNE
Cosmos 2266 Rocket 3.9 04:23:02 10° N 04:29:08 85° E 04:35:17 10° S
Lacrosse 5 rocket 3.5 04:27:51 14° NW 04:29:24 16° NNW 04:32:00 10° N
CZ-2D R/B 4.1 04:27:50 10° N 04:31:35 36° WNW 04:32:00 35° W
Cosmos 1726 Rocket 4.2 04:29:49 10° NNW 04:33:43 34° W 04:33:43 34° W
SL-16 R/B 4.1 04:35:55 17° W 04:35:55 17° W 04:38:59 10° NW
Helios 1A Rocket 4.2 04:32:03 10° NNW 04:35:29 25° WNW 04:35:42 25° WNW
Cosmos 1763 Rocket 3.8 04:34:11 33° SW 04:36:15 52° WNW 04:41:27 10° N
DNEPR-1 R/B 3.9 04:34:44 26° S 04:36:53 58° ESE 04:41:17 10° NE
Cosmos 1758 3.3 04:36:16 10° N 04:40:16 84° E 04:44:14 10° S
ATLAS 3B R/B 2.7 04:36:09 24° SW 04:40:48 83° WNW 04:47:49 10° NNE
PSLV R/B 3.9 04:37:54 10° NNE 04:42:06 63° E 04:45:56 12° S
NOSS 3-2 (A) 3.5 04:41:18 20° SSW 04:45:30 74° ESE 04:51:56 10° NE
OAO 3 Rocket 4.5 04:47:12 21° SSW 04:47:12 21° SSW 04:50:27 10° SSE
Cosmos 1898 Rocket 4.3 04:44:13 10° NW 04:48:42 30° W 04:50:33 24° SW
Cosmos 1812 Rocket 4.0 04:45:39 10° N 04:50:07 65° E 04:54:31 10° SSE
Cosmos 2058 Rocket 3.8 04:48:45 10° NNW 04:52:39 31° W 04:54:13 25° SW
Cosmos 1602 Rocket 3.4 04:50:33 17° SSW 04:53:51 72° W 04:58:10 10° N
Cosmos 292 Rocket 3.8 04:52:44 22° SW 04:55:47 61° WNW 05:00:35 10° NNE
USA 215 3.3 04:52:58 10° NE 04:59:28 72° NW 05:04:39 17° WSW
Cosmos 1733 3.1 04:56:18 10° NNW 05:00:09 67° W 05:03:59 10° S
Cosmos 1937 Rocket 4.1 04:55:49 10° NW 05:00:24 32° W 05:04:55 10° SSW
Cosmos 1125 Rocket 4.1 04:56:29 10° NNW 05:01:45 61° ENE 05:06:58 10° SSE
Cosmos 2228 4.2 04:58:53 10° NW 05:02:10 22° W 05:03:01 21° WSW
CENTAUR R/B 4.1 04:57:53 10° S 05:02:50 30° ESE 05:08:20 10° NE
Aureole 2 Rocket 3.7 04:59:52 10° N 05:03:34 47° ENE 05:07:02 10° SE
CZ-4B R/B 2.9 05:01:03 10° NNE 05:05:18 85° ESE 05:09:18 10° SSW
Cosmos 1626 Rocket 3.9 05:03:44 17° SW 05:06:44 44° W 05:10:54 10° N
USA 161 3.1 05:08:49 10° SSE 05:11:42 40° ENE 05:14:33 10° N
ERBS 3.5 05:10:35 11° SSW 05:13:37 37° SE 05:16:47 10° ENE
SJ 16-02 1.3 05:11:33 10° NNW 05:15:59 83° WSW 05:20:23 10° SSE
Cosmos 2360 Rocket 2.5 05:12:25 10° NNW 05:18:04 73° ENE 05:23:40 10° SSE
Cosmos 44 3.9 05:13:31 10° NW 05:18:27 41° WSW 05:23:28 10° S
Cosmos 1980 Rocket 3.8 05:17:28 10° WNW 05:19:45 13° W 05:20:07 12° W
Cosmos 1470 3.0 05:17:14 10° NNW 05:21:07 49° W 05:24:54 10° SSW
PSLV R/B 3.6 05:22:50 14° SW 05:25:05 43° SSE 05:27:58 10° E
Cosmos 372 Rocket 3.9 05:24:46 10° NNW 05:29:58 70° WSW 05:35:06 10° S
ATLAS CENTAUR R/B 2.4 05:27:49 10° NNW 05:32:10 56° NE 05:36:45 10° SE
SL-16 R/B 2.8 05:27:08 10° NW 05:32:10 33° WSW 05:37:10 10° SSW
USA 267 4.1 05:26:50 10° ESE 05:33:09 53° NE 05:39:28 10° NW
CRYOSAT 2 4.3 05:28:29 10° S 05:33:17 69° W 05:38:09 10° N
COSMOS 2428 4.2 05:28:50 10° N 05:34:14 41° ENE 05:39:34 10° SE
BREEZE-M DEB (TANK) 3.9 05:31:53 10° SSW 05:35:36 41° SE 05:39:20 10° ENE
ADEOS II 3.5 05:32:54 10° NNW 05:36:39 20° WNW 05:40:22 10° WSW
Cosmos 1707 3.5 05:36:13 10° SW 05:39:44 34° WNW 05:43:18 10° NNW
Cosmos 1553 Rocket 4.1 05:37:00 10° S 05:43:25 80° W 05:49:51 10° N
Cosmos 44 Rocket 4.0 05:38:52 10° NW 05:43:31 35° WSW 05:48:12 10° S
Cosmos 2219 Rocket 4.1 05:40:35 10° N 05:45:43 35° ENE 05:50:48 10° SE
Meteor 1-16 Rocket 4.2 05:42:15 10° NNW 05:47:53 69° W 05:53:17 10° S
